Inquirer Daily News

Weather

Get conditions and forecasts for any City, State, ZIP code or Country:  
Trenton, NJ
on Wednesday, February 27, 2013

Wednesday
Previous Day Next Day
Daily Summary
 ActualAverageRecord
Temperature
Mean Temperature °F 37°F  
Max Temperature 51°F 45°F 72°F (1997)
Min Temperature 38°F 28°F 6°F (1934)
Degree Days
Heating Degree Days 20 28  
Month to date heating degree days 869 839  
Since 1 July heating degree days 3577 3785  
Cooling Degree Days 0 0  
Month to date cooling degree days 0 0  
Year to date cooling degree days 0 0  
Moisture
Dew Point 41°F   
Average Humidity 81    
Maximum Humidity 100    
Minimum Humidity 61    
Precipitation
Precipitation 0.27 in 0.10 in 1.52 in (1958)
Month to date precipitation 1.80 2.21  
Year to date precipitation 4.62 5.37  
Wind
Wind Speed 12 mph   
Max Wind Speed 29 mph   
Max Gust Speed 37 mph   
Visibility 6 miles   
Events Rain   

Key: T is trace of precipitation, MM is missing value
Source: NWS Daily Summary
Time(EST)TemperatureDew PointHumidity Pressure Visibility Wind DirectionWind SpeedGust SpeedPrecipitationEvents Conditions
12:53 AM 37.9°F 36.0°F 93% 29.75 in 4.0 miles East 18.4 mph 26.5 mph 0.09 in Rain Rain
1:53 AM 39.9°F 37.0°F 89% 29.70 in 4.0 miles East 19.6 mph 31.1 mph 0.03 in Rain Light Rain
2:53 AM 39.9°F 37.9°F 93% 29.66 in 3.0 miles East 20.7 mph 32.2 mph 0.06 in Rain Light Rain
3:53 AM 42.1°F 39.0°F 89% 29.62 in 3.0 miles East 21.9 mph 31.1 mph 0.05 in Rain Rain
4:53 AM 41.0°F 39.0°F 93% 29.57 in 4.0 miles East 23.0 mph 33.4 mph 0.02 in Rain Light Rain
5:53 AM 41.0°F 39.0°F 93% 29.55 in 4.0 miles ENE 19.6 mph 27.6 mph 0.01 in Rain Light Rain
6:53 AM 42.1°F 39.9°F 92% 29.51 in 4.0 miles East 23.0 mph 32.2 mph 0.00 in   Overcast
7:50 AM 44.6°F 42.8°F 93% 29.51 in 3.0 miles East 21.9 mph 28.8 mph N/A   Overcast
7:53 AM 45.0°F 42.1°F 90% 29.49 in 4.0 miles East 21.9 mph 28.8 mph N/A   Overcast
8:39 AM 44.6°F 42.8°F 93% 29.51 in 2.0 miles East 17.3 mph 24.2 mph N/A   Overcast
8:46 AM 44.6°F 42.8°F 93% 29.51 in 1.2 miles East 15.0 mph 24.2 mph 0.00 in Rain Light Rain
8:53 AM 45.0°F 43.0°F 93% 29.51 in 1.2 miles East 11.5 mph 20.7 mph 0.00 in Rain Light Rain
9:53 AM 46.0°F 44.1°F 93% 29.50 in 1.2 miles East 10.4 mph - 0.01 in Rain Light Rain
10:14 AM 46.4°F 44.6°F 93% 29.51 in 2.0 miles East 10.4 mph - 0.00 in   Overcast
10:27 AM 46.4°F 44.6°F 93% 29.51 in 4.0 miles East 8.1 mph - 0.00 in   Overcast
10:53 AM 46.9°F 45.0°F 93% 29.51 in 10.0 miles ESE 4.6 mph - 0.00 in   Overcast
11:36 AM 46.4°F 46.4°F 100% 29.52 in 2.0 miles Calm Calm - N/A   Overcast
11:44 AM 46.4°F 46.4°F 100% 29.52 in 1.2 miles Calm Calm - N/A   Overcast
11:51 AM 46.4°F 46.4°F 100% 29.52 in 1.5 miles Calm Calm - N/A   Overcast
11:53 AM 46.9°F 46.0°F 97% 29.51 in 1.5 miles Calm Calm - N/A   Overcast
12:21 PM 48.2°F 46.4°F 93% 29.52 in 2.0 miles West 5.8 mph - 0.01 in   Overcast
12:35 PM 48.2°F 46.4°F 93% 29.52 in 3.0 miles WNW 10.4 mph 17.3 mph 0.01 in Rain Light Rain
12:53 PM 46.9°F 44.1°F 90% 29.52 in 9.0 miles WNW 12.7 mph 20.7 mph 0.01 in   Overcast
1:22 PM 48.2°F 44.6°F 87% 29.53 in 10.0 miles NNW 9.2 mph 18.4 mph N/A   Overcast
1:35 PM 48.2°F 42.8°F 82% 29.53 in 10.0 miles NW 12.7 mph 21.9 mph N/A   Mostly Cloudy
1:53 PM 50.0°F 42.1°F 74% 29.52 in 10.0 miles NW 12.7 mph 19.6 mph N/A   Mostly Cloudy
2:43 PM 50.0°F 39.2°F 66% 29.55 in 10.0 miles NNW 12.7 mph 23.0 mph N/A   Mostly Cloudy
2:53 PM 48.9°F 39.0°F 69% 29.55 in 10.0 miles NNW 13.8 mph 21.9 mph N/A   Mostly Cloudy
3:53 PM 48.9°F 37.0°F 64% 29.58 in 10.0 miles NW 16.1 mph 24.2 mph N/A   Overcast
4:53 PM 48.0°F 36.0°F 63% 29.59 in 10.0 miles NW 11.5 mph 20.7 mph N/A   Overcast
5:53 PM 48.0°F 36.0°F 63% 29.61 in 10.0 miles NW 4.6 mph - N/A   Overcast
6:53 PM 46.9°F 36.0°F 66% 29.63 in 10.0 miles WNW 3.5 mph - N/A   Overcast
7:53 PM 46.0°F 37.0°F 71% 29.64 in 10.0 miles West 3.5 mph - N/A   Overcast
8:53 PM 45.0°F 37.0°F 74% 29.65 in 10.0 miles SW 3.5 mph - N/A   Overcast
9:53 PM 44.1°F 37.0°F 76% 29.65 in 10.0 miles WSW 3.5 mph - N/A   Overcast
10:53 PM 45.0°F 36.0°F 71% 29.63 in 10.0 miles WSW 3.5 mph - N/A   Overcast
11:53 PM 45.0°F 36.0°F 71% 29.62 in 10.0 miles Calm Calm - N/A   Overcast
Astronomy
Sunrise:06:35 AM (EST) Moon Rise:08:07 PM (EST)2/27
Sunset:05:48 PM (EST) Moon Set:07:09 AM (EST)2/27
Moon Phase
Feb. 27 Mar. 04 Mar. 11 Mar. 19 Mar. 27

Copyright © 2014 The Weather Underground, Inc.